Tracking 35030 objects as of 9-Aug-2026
HD Live streaming from Space Station
objects crossing your sky now

SPACEBEENZ-13


SPACEBEENZ-13 is no longer on orbit


NORAD ID: 52026
Int'l Code: 2022-026U
Launch date: March 15, 2022
Source: New Zealand (NZ)
Launch site: Kodiak Island, Alaska (KODAK)
Decay date: 2023-11-16
Your satellite tracking list
Your tracking list is empty




NASA's NSSDC Master Catalog

Two Line Element Set (TLE):
1 52026U 22026U   23320.59216895  .15212064  26228-5  62730-3 0  9999
2 52026  97.4503 333.5691 0013225 223.2930 136.7332 16.42389102 93237
Source of the keplerian elements: AFSPC